Location: Bruderhein
(53.8035°N, 112.9265°W)
Time: 11:58:57
(UTC+00:00)

BEESAT 2 - Visible Passes

Search period start: 28 March 2023 00:00
Search period end: 07 April 2023 00:00
Orbit: 446 x 481 km, 64.9° (Epoch: 27 March)

Date Brightness Start Highest point End Pass type
(mag) Time Alt. Az. Time Alt. Az. Time Alt. Az.
02 Apr ? 12:07:17 10° SSE 12:09:59 20° ESE 12:12:43 10° ENE visible
03 Apr ? 11:35:23 10° SSE 11:37:27 15° ESE 11:39:33 10° E visible
04 Apr ? 11:04:06 10° SE 11:04:53 11° ESE 11:05:41 10° E visible
05 Apr ? 12:04:20 10° SSW 12:07:53 51° SE 12:11:29 10° NE visible
06 Apr ? 11:31:39 10° SSW 11:35:03 37° SE 11:38:28 10° ENE visible
